Temperature
18 18 18 18 18 18 18 18 18 18 18 18 18 18 18 18 18 18 18 18 18 18 18 18 17 17 17 17 17 17 17 17 17 17 16 16 16 16 16 16 16 16 16
18 18 18 18 18 18 18 18 18 18 18 18 18 18 18 18 18 18 18 18 18 18 18 18 17 17 17 17 17 17 17 17 17 17 17 16 16 16 16 16 16 16 16
18 18 18 18 18 18 18 18 18 18 18 18 18 18 18 18 18 18 18 18 18 18 18 17 17 17 17 17 17 17 17 17 17 17 17 16 16 16 16 16 16 16 16
18 18 18 18 18 18 18 18 18 18 18 18 18 18 18 18 18 18 18 18 18 18 17 17 17 17 17 17 17 17 17 17 17 16 16 16 16 16 16 16 16 16 16
18 18 18 18 18 18 18 18 18 18 18 18 18 18 18 18 18 18 18 18 18 17 17 17 17 17 17 17 17 17 17 17 17 17 16 16 16 16 16 16 16 16 16
18 18 18 18 18 18 18 18 18 18 18 18 18 18 18 18 18 18 18 18 18 17 17 17 17 17 17 17 17 17 17 17 17 17 17 17 16 16 16 16 16 16 16
18 18 18 18 18 18 18 18 18 18 18 18 18 18 18 18 18 18 18 18 18 18 17 17 17 17 17 17 17 17 17 17 16 16 16 16 16 16 16 16 16 16 16
18 18 18 18 18 18 18 18 18 17 17 17 17 17 17 17 18 18 18 18 18 18 17 17 17 17 17 17 17 17 17 17 16 16 16 16 16 16 16 16 16 16 16
18 18 18 18 18 18 18 17 17 17 17 17 17 17 17 17 17 17 17 18 17 17 17 17 17 17 17 17 17 17 17 17 17 17 16 16 16 16 16 16 16 16 16
18 18 18 18 18 18 18 18 17 17 17 17 17 17 17 17 17 17 17 17 17 17 17 17 17 17 17 17 17 17 17 17 16 16 16 16 16 16 16 16 16 16 15
18 18 18 18 18 18 18 18 17 17 17 17 17 17 17 17 17 17 17 17 17 17 17 17 17 17 17 17 17 17 16 16 16 16 16 16 16 16 16 16 16 15 15
18 18 18 18 18 18 18 18 17 17 17 17 17 17 17 17 17 17 17 17 17 17 17 17 17 17 17 17 17 16 16 16 16 16 16 16 16 16 16 16 15 15 15
18 18 18 18 18 18 18 18 18 17 17 17 17 17 17 17 17 17 17 16 16 16 17 17 17 17 16 16 16 16 16 16 16 16 16 16 16 16 15 15 15 15 15
18 18 18 18 18 18 18 18 18 17 17 17 17 17 17 17 17 17 16 16 16 16 16 16 16 16 16 16 16 16 16 16 16 16 16 15 15 15 15 15 15 15 15
18 18 18 18 18 18 18 18 17 17 17 17 17 17 17 17 17 17 16 16 16 16 16 16 16 16 16 16 16 16 16 16 15 15 15 15 15 15 15 15 15 15 15
18 18 18 18 17 18 17 17 17 17 17 17 17 17 17 17 16 16 16 16 16 16 15 16 16 16 16 16 16 16 15 15 15 15 15 15 15 15 15 15 15 14 14
18 18 17 17 17 17 17 17 17 17 17 17 17 17 17 17 17 16 16 16 16 16 16 16 16 15 15 15 15 15 15 15 15 15 15 15 15 15 15 15 14 14 14
17 17 17 17 17 17 17 17 17 17 17 17 17 17 17 17 17 16 16 16 16 16 16 15 15 15 15 15 15 15 15 15 15 15 15 15 14 14 14 14 14 14 14
17 17 17 17 17 17 17 17 17 16 16 16 16 16 16 16 16 16 16 16 16 16 15 15 15 15 15 15 15 15 15 15 14 14 14 14 14 14 14 14 14 14 14
17 17 17 17 17 17 16 16 16 16 16 16 16 16 16 16 16 16 16 16 16 15 15 15 15 15 14 14 14 14 14 14 14 14 14 14 14 14 14 14 14 14 14
17 17 16 16 16 16 16 16 16 16 16 16 16 16 16 16 16 16 16 15 15 15 15 15 15 14 14 14 14 14 14 14 14 14 14 14 14 14 14 14 13 13 13
16 16 16 16 16 16 16 16 16 16 16 16 16 16 16 16 16 15 15 15 15 15 15 15 14 14 14 14 14 14 14 14 13 14 13 14 14 13 13 13 13 13 13
16 16 16 16 16 16 15 15 15 15 15 15 15 15 15 15 15 15 15 15 15 15 14 14 14 14 14 14 14 14 14 13 13 13 13 13 13 13 13 13 13 13 13
16 16 16 16 15 15 15 15 15 15 15 15 15 15 15 15 15 15 15 15 15 14 14 14 14 14 14 14 14 14 13 13 13 13 13 12 13 13 13 13 13 12 12
15 15 15 15 15 15 15 15 15 15 15 14 14 14 14 14 14 14 14 14 14 14 14 14 14 14 14 13 13 13 13 13 13 12 12 12 12 12 12 12 12 12 12
15 15 15 15 15 15 15 14 14 14 14 14 14 14 14 14 14 14 14 14 14 14 14 14 14 14 13 13 13 13 13 13 13 12 12 12 12 12 12 12 12 12 11
Wind_Speed
1 0 0 0 1 1 1 1 1 1 1 1 1 2 2 3 3 4 5 7 8 8 8 8 8 8 8 8 8 8 8 8 8 8 8 8 9 8 8 8 8 8 8
1 1 1 0 1 1 1 1 1 1 1 1 1 1 1 2 3 3 4 5 7 8 8 9 9 8 8 8 8 8 9 9 9 9 9 9 10 10 9 9 9 9 9
2 1 1 0 1 1 0 1 1 1 1 1 0 0 1 2 3 3 3 3 5 6 8 8 8 8 8 9 9 9 9 10 10 10 10 10 11 11 10 10 9 9 9
2 1 1 1 1 0 0 1 1 1 0 0 1 1 1 2 2 2 3 3 4 4 5 6 6 6 7 7 8 9 9 10 10 10 10 10 11 11 10 10 10 10 10
3 2 1 1 1 0 0 0 1 1 1 1 1 1 1 1 2 2 3 4 4 4 4 5 6 6 7 7 8 8 8 9 10 11 11 11 10 11 11 11 11 11 10
3 3 2 1 1 1 0 0 1 1 1 1 0 0 1 1 1 2 2 3 3 4 4 4 4 5 7 8 8 9 9 9 10 11 12 12 11 11 11 11 11 11 11
4 3 2 1 1 1 1 1 1 1 0 1 1 2 2 1 0 1 2 2 2 3 4 4 4 4 4 6 7 8 9 9 10 11 12 12 12 12 12 12 12 12 11
3 3 3 2 2 1 0 1 2 1 0 1 1 1 2 2 1 1 1 1 2 2 3 4 3 4 4 4 6 7 8 8 9 10 11 11 11 12 12 12 12 12 12
4 4 3 3 2 2 2 2 2 2 1 0 1 2 1 2 2 2 1 1 1 1 2 3 3 4 4 4 5 6 7 8 9 9 10 10 10 11 11 12 13 13 13
3 4 4 4 3 3 3 3 2 2 2 2 1 1 2 2 1 2 2 1 1 1 2 2 3 4 4 4 5 5 6 7 8 8 9 10 10 10 10 10 11 10 11
2 3 4 4 3 3 3 3 2 3 2 3 2 1 1 1 2 2 2 2 2 1 2 2 2 3 4 5 5 6 6 6 6 7 8 9 9 9 9 8 9 9 9
2 3 3 3 4 3 4 4 4 4 4 4 3 3 3 2 3 3 3 3 3 2 2 2 3 3 3 4 5 6 6 6 5 5 5 6 5 6 6 6 7 8 8
2 3 3 3 3 4 4 4 4 4 5 4 5 4 4 4 3 3 3 2 2 2 2 2 3 3 4 4 4 5 5 5 5 5 5 6 6 6 6 6 6 7 7
4 3 4 4 4 4 4 4 4 5 4 4 5 5 4 4 4 4 3 3 2 2 2 3 2 3 3 3 5 6 5 6 5 5 5 6 6 6 6 6 6 5 5
3 3 3 4 4 3 3 3 3 4 4 4 5 5 4 4 4 4 4 4 3 3 3 3 2 2 2 3 4 4 4 5 5 5 5 5 5 5 5 5 5 5 5
3 3 3 4 4 4 3 3 4 4 4 4 3 4 4 3 3 3 4 4 4 4 3 2 3 2 2 2 2 2 3 4 5 5 5 5 5 5 5 5 5 5 5
3 4 4 4 4 4 3 3 4 3 4 4 3 4 5 4 3 3 3 3 3 3 4 3 2 1 1 2 1 1 2 2 3 4 5 5 5 5 4 5 5 4 5
4 4 4 4 5 4 3 4 4 4 4 5 4 4 5 3 3 3 3 3 3 4 4 4 2 1 2 2 1 1 1 1 2 2 3 4 4 4 5 4 4 4 4
4 4 4 4 5 5 5 5 5 5 5 5 5 5 5 4 4 3 3 3 3 3 3 3 3 1 1 1 0 0 0 0 1 2 2 3 3 4 4 4 4 5 5
3 3 3 4 4 5 5 5 5 5 5 5 5 4 4 5 5 4 4 4 3 3 3 3 2 1 1 1 1 1 1 1 1 1 1 2 3 3 4 4 5 5 6
3 3 3 3 3 4 4 4 4 5 5 4 4 4 4 4 5 4 4 4 4 3 3 3 3 2 2 1 2 2 2 1 1 1 1 2 2 2 2 4 4 5 5
2 2 3 3 3 4 4 4 4 4 4 4 4 4 4 4 4 5 5 5 5 5 5 4 4 4 5 4 3 3 2 2 2 1 2 2 2 2 3 3 4 5 5
2 2 3 3 3 4 4 3 3 3 3 4 4 4 3 3 3 3 3 4 4 5 6 6 6 6 5 5 4 4 4 3 4 2 2 2 2 3 3 3 4 4 5
2 3 3 3 3 4 3 3 3 3 3 3 4 4 4 3 2 2 3 3 3 4 5 5 6 6 5 5 5 5 5 3 1 1 2 2 2 2 2 2 3 4 5
2 2 2 2 2 4 3 2 1 2 2 3 3 3 3 3 4 3 3 3 3 3 2 2 3 4 4 4 4 3 3 3 2 2 2 2 1 1 2 2 3 4 5
2 2 2 2 2 3 3 2 1 1 2 2 2 2 2 3 3 2 3 4 3 3 1 1 1 1 1 2 4 5 5 4 2 2 2 2 2 1 1 2 2 2 3
Wind_Direction
137 111 74 7 4 8 358 343 351 12 5 343 270 213 222 225 229 227 225 227 226 230 226 220 217 217 217 221 221 219 214 210 207 207 206 205 204 205 204 199 198 200 203
166 152 131 223 293 298 298 314 351 1 5 358 321 244 227 226 229 231 235 239 237 232 227 224 218 219 221 224 224 225 220 216 209 208 211 215 212 209 208 206 205 207 208
178 165 140 206 269 281 303 38 34 43 8 353 315 272 229 230 233 233 234 239 244 239 230 227 225 227 228 227 225 226 224 223 216 215 217 219 215 214 210 209 208 209 210
190 156 143 253 274 300 101 115 128 84 38 308 290 284 251 245 241 226 223 233 242 246 236 235 234 234 237 235 231 229 227 224 217 217 219 221 216 215 212 209 210 212 214
194 174 181 233 246 133 125 187 126 154 176 214 244 255 246 236 236 229 227 238 243 242 238 241 240 241 240 237 235 234 232 228 223 222 222 218 215 214 214 215 217 218 219
196 186 193 215 190 147 144 142 143 138 166 199 238 341 299 278 236 230 237 241 246 242 239 241 243 247 246 246 244 242 239 236 230 225 221 218 217 217 217 219 220 221 223
197 191 200 181 169 168 188 161 138 125 73 125 69 1 349 335 283 256 240 235 246 243 235 234 234 240 252 255 250 248 247 245 236 229 221 219 220 221 221 224 223 220 222
208 208 197 201 180 157 146 153 138 141 184 119 127 63 340 338 344 313 232 229 253 245 238 237 233 237 247 245 250 251 249 253 245 236 227 224 223 222 225 225 225 225 225
224 217 208 199 191 183 198 210 182 177 203 263 151 164 181 256 308 328 340 301 282 249 250 240 236 240 243 241 251 256 249 247 246 240 233 225 223 224 226 227 227 228 228
232 223 212 203 204 198 202 219 202 197 186 221 228 215 213 194 209 304 321 325 313 276 267 258 249 243 240 237 244 251 250 245 246 244 239 229 228 229 229 228 229 226 226
248 237 222 213 215 213 211 212 208 205 203 211 210 202 211 223 208 217 280 302 314 296 272 258 250 245 244 241 242 250 256 257 253 245 244 238 235 236 233 227 227 227 230
260 251 231 221 224 222 221 220 215 216 220 218 217 213 210 212 209 204 234 266 287 293 287 261 246 241 247 250 252 251 250 252 253 254 249 240 230 233 233 230 232 234 235
248 253 245 235 235 234 229 222 214 227 225 225 225 228 225 226 210 201 208 244 271 291 294 268 242 238 246 247 255 258 253 250 250 248 245 236 224 229 232 233 236 238 240
241 244 241 242 241 238 239 225 224 232 226 226 234 228 227 230 216 204 205 204 250 287 288 275 271 245 250 248 249 250 254 250 247 247 245 239 232 233 231 233 231 231 234
248 242 238 242 246 239 234 224 229 234 228 229 234 231 232 231 219 219 212 207 206 253 275 272 268 262 247 247 254 242 242 244 243 244 241 235 229 222 220 225 223 216 213
254 254 247 241 243 243 233 222 235 239 236 242 234 231 236 233 225 220 212 212 212 220 250 249 250 281 271 263 264 229 237 240 237 237 232 222 218 212 210 212 206 207 213
253 252 249 242 244 245 240 229 238 233 235 245 241 235 241 228 223 226 215 208 211 207 235 264 257 280 261 266 291 225 228 220 229 226 219 213 212 207 204 206 210 214 221
259 256 249 241 243 244 236 232 239 242 236 241 241 238 243 233 224 222 216 218 216 211 214 245 256 247 251 250 243 231 236 221 221 220 209 208 206 206 210 212 215 219 224
269 266 251 245 246 244 238 235 233 238 238 238 236 235 239 227 231 227 218 220 222 219 212 220 242 235 247 242 219 272 285 288 232 208 203 211 211 215 218 217 219 223 225
262 259 253 252 251 247 244 240 233 236 240 241 237 231 229 224 227 223 222 224 219 214 208 211 226 236 244 260 190 204 257 263 261 225 223 220 215 219 223 223 223 223 223
254 255 257 262 260 251 251 246 239 238 239 242 239 232 232 227 225 219 220 216 210 214 211 214 224 221 234 240 233 214 226 245 260 242 227 234 216 224 230 234 232 229 225
256 258 255 257 265 266 274 255 240 244 235 231 239 244 244 236 234 229 223 214 205 210 215 217 226 225 235 231 222 211 207 217 250 229 206 247 221 245 246 232 234 229 224
249 260 260 256 265 273 277 266 251 245 240 235 233 241 254 261 238 232 231 226 223 220 211 211 222 229 229 225 213 217 217 221 230 215 194 242 237 252 253 256 244 229 219
244 250 260 258 262 281 282 268 260 249 248 246 240 236 242 259 250 232 230 236 242 240 232 221 223 227 226 223 211 209 211 215 229 227 198 226 241 251 264 248 232 225 223
247 249 260 254 259 281 284 274 261 257 260 269 264 254 244 253 261 236 214 225 247 268 272 237 228 223 217 205 185 164 169 177 222 233 200 208 239 252 249 252 237 227 226
245 254 277 267 254 270 284 272 224 233 259 272 280 276 265 261 270 236 210 208 223 251 265 302 313 277 218 195 182 187 186 188 202 227 204 192 203 207 243 237 231 221 221
Height
1543 1544 1544 1545 1546 1546 1547 1548 1548 1549 1550 1551 1551 1551 1551 1552 1552 1552 1553 1553 1553 1553 1553 1554 1554 1554 1555 1555 1556 1556 1557 1558 1558 1559 1560 1561 1562 1563 1564 1565 1566 1567 1568
1544 1544 1545 1546 1546 1547 1547 1548 1549 1549 1550 1550 1551 1551 1551 1551 1552 1552 1552 1552 1552 1552 1552 1552 1553 1553 1553 1554 1554 1555 1555 1556 1557 1558 1559 1560 1560 1561 1562 1563 1564 1565 1566
1544 1545 1545 1546 1547 1547 1548 1548 1549 1549 1550 1550 1550 1550 1551 1551 1551 1551 1551 1551 1551 1551 1551 1551 1551 1552 1552 1552 1552 1553 1554 1554 1555 1556 1556 1557 1558 1559 1560 1561 1562 1563 1564
1545 1545 1546 1546 1547 1547 1548 1548 1548 1549 1549 1549 1550 1550 1550 1550 1550 1550 1550 1550 1550 1550 1550 1550 1550 1550 1550 1550 1551 1551 1551 1552 1553 1553 1554 1555 1556 1557 1558 1559 1560 1561 1562
1545 1545 1545 1546 1546 1547 1548 1548 1548 1548 1549 1549 1549 1549 1549 1549 1549 1549 1549 1549 1549 1549 1549 1549 1549 1549 1549 1549 1549 1549 1550 1550 1550 1551 1552 1553 1554 1555 1556 1557 1558 1559 1560
1544 1545 1545 1546 1546 1546 1547 1547 1547 1548 1548 1548 1548 1547 1547 1548 1547 1547 1547 1548 1548 1548 1548 1548 1548 1548 1548 1548 1548 1548 1548 1548 1548 1549 1549 1550 1551 1552 1553 1554 1555 1556 1557
1544 1544 1544 1545 1545 1546 1546 1546 1546 1547 1547 1547 1547 1546 1546 1546 1546 1546 1546 1546 1546 1546 1546 1546 1546 1546 1546 1546 1546 1546 1546 1546 1546 1546 1547 1548 1548 1549 1550 1551 1552 1553 1554
1543 1543 1544 1544 1545 1545 1545 1545 1545 1545 1545 1546 1546 1546 1545 1545 1544 1544 1544 1544 1544 1544 1545 1545 1544 1544 1544 1544 1544 1544 1544 1544 1544 1544 1545 1545 1546 1547 1547 1548 1549 1550 1551
1542 1542 1543 1543 1543 1543 1544 1544 1544 1544 1544 1545 1545 1545 1545 1543 1543 1543 1542 1542 1542 1543 1543 1543 1543 1542 1542 1542 1541 1541 1541 1541 1541 1542 1542 1542 1543 1544 1544 1545 1546 1547 1548
1540 1541 1541 1542 1542 1542 1542 1542 1542 1543 1543 1543 1543 1543 1544 1543 1542 1541 1541 1541 1541 1541 1541 1541 1541 1540 1540 1540 1539 1539 1539 1539 1539 1539 1540 1540 1540 1541 1541 1542 1543 1544 1545
1538 1539 1539 1539 1540 1540 1540 1540 1540 1541 1541 1541 1541 1541 1541 1541 1540 1540 1539 1539 1539 1539 1539 1539 1539 1538 1538 1538 1537 1537 1537 1537 1536 1537 1537 1537 1537 1538 1538 1539 1540 1541 1542
1536 1536 1537 1537 1537 1538 1538 1538 1538 1538 1539 1539 1539 1539 1538 1538 1538 1538 1537 1536 1536 1536 1537 1537 1537 1536 1536 1536 1535 1535 1535 1534 1534 1534 1534 1534 1534 1534 1535 1536 1536 1537 1538
1533 1534 1535 1535 1535 1535 1536 1536 1536 1536 1536 1536 1536 1536 1536 1536 1536 1536 1535 1534 1534 1534 1534 1534 1534 1534 1534 1533 1533 1533 1532 1532 1532 1532 1532 1532 1532 1532 1533 1533 1534 1534 1535
1531 1531 1532 1532 1532 1533 1533 1533 1533 1533 1533 1533 1533 1533 1533 1533 1533 1533 1532 1532 1531 1531 1531 1531 1532 1531 1531 1531 1531 1530 1530 1530 1530 1529 1529 1529 1529 1529 1530 1530 1531 1531 1532
1528 1528 1528 1529 1529 1530 1530 1530 1530 1530 1530 1530 1530 1530 1530 1530 1530 1530 1530 1530 1530 1529 1528 1528 1529 1529 1529 1529 1528 1528 1528 1527 1527 1527 1527 1527 1527 1527 1527 1527 1528 1529 1529
1524 1525 1525 1525 1526 1526 1526 1526 1526 1527 1527 1526 1526 1526 1526 1526 1526 1526 1527 1527 1527 1527 1525 1525 1526 1526 1526 1526 1526 1526 1525 1525 1524 1524 1524 1524 1524 1524 1525 1525 1526 1526 1527
1521 1521 1521 1522 1522 1522 1523 1523 1523 1523 1523 1523 1523 1523 1523 1523 1523 1523 1523 1523 1523 1523 1522 1522 1523 1523 1523 1523 1523 1523 1522 1522 1522 1522 1522 1522 1522 1522 1523 1523 1523 1523 1524
1517 1517 1517 1517 1517 1518 1518 1519 1519 1519 1519 1519 1520 1520 1520 1520 1520 1520 1519 1519 1519 1520 1520 1519 1519 1520 1520 1520 1520 1519 1519 1519 1519 1519 1519 1519 1519 1519 1519 1520 1520 1520 1520
1513 1513 1513 1513 1513 1514 1514 1514 1515 1515 1516 1516 1516 1516 1516 1517 1516 1516 1516 1516 1516 1516 1516 1516 1516 1516 1516 1517 1516 1516 1516 1516 1516 1516 1516 1516 1516 1516 1516 1516 1516 1516 1516
1508 1509 1509 1508 1509 1509 1510 1510 1511 1511 1512 1512 1512 1512 1513 1513 1513 1513 1513 1513 1513 1513 1513 1512 1512 1512 1512 1513 1513 1512 1512 1513 1513 1513 1513 1513 1513 1513 1513 1513 1513 1513 1513
1504 1504 1504 1504 1504 1505 1505 1506 1506 1507 1507 1508 1508 1508 1508 1509 1509 1509 1509 1509 1509 1509 1509 1509 1508 1508 1508 1508 1508 1508 1508 1508 1509 1509 1509 1509 1509 1509 1509 1509 1509 1509 1509
1500 1500 1500 1500 1500 1501 1501 1502 1502 1502 1503 1503 1504 1504 1504 1505 1505 1505 1505 1505 1505 1505 1505 1505 1504 1504 1504 1504 1504 1505 1504 1504 1504 1506 1505 1505 1506 1505 1506 1505 1505 1505 1506
1496 1497 1497 1497 1497 1497 1498 1498 1498 1499 1499 1499 1500 1500 1500 1501 1501 1501 1501 1501 1501 1501 1501 1501 1501 1501 1501 1501 1501 1501 1501 1501 1501 1502 1502 1501 1502 1502 1502 1502 1502 1502 1502
1493 1493 1494 1494 1494 1494 1494 1494 1495 1495 1495 1495 1496 1496 1496 1497 1497 1497 1497 1497 1497 1497 1497 1497 1498 1497 1498 1498 1497 1497 1497 1497 1497 1498 1498 1498 1498 1498 1499 1499 1499 1499 1499
1490 1490 1491 1491 1491 1491 1491 1491 1491 1491 1491 1491 1492 1492 1492 1492 1493 1493 1493 1493 1493 1493 1494 1494 1494 1494 1494 1494 1494 1493 1493 1493 1493 1494 1494 1494 1494 1494 1495 1495 1495 1496 1496
1487 1488 1488 1488 1488 1488 1488 1488 1488 1488 1488 1488 1488 1488 1488 1489 1489 1489 1489 1489 1489 1489 1490 1490 1490 1491 1490 1490 1490 1490 1490 1490 1490 1490 1490 1490 1490 1491 1491 1491 1492 1492 1493